Погода в Новоильинке

Россия / Томская область     58°13′35″N   83°00′42″E
темп.,
°C
ветер,
м/с
пор.,
м/с
влажн.,
%
обл.,
%
осадки,
мм/ч
давл.,
гПа
погр.,
м
29 июля, чт
чт2901:00+13ююв357133 0.0 100892
04:00+12ююв347826 0.0 100859
07:00+14ююв3680100 0.0 1007184
10:00+18ююв4763100 0.0 1006539
13:00+20ююв58586 0.0 1006877
16:00+20ю395492 0.0 10051490
19:00+17зюз588413 0.9 1006422
22:00+13ссз24945 0.8 100872
30 июля, пт
пт3001:00+10ссз12940 0.8 100912
04:00+9сз11940 0.0 100910
07:00+11с00910 0.0 101041
10:00+16юз23710 0.0 1010594
13:00+20зюз364267 0.0 10102292
16:00+18зюз365163 0.0 1009670
19:00+16з596565 0.2 1010465
22:00+10юв22940 0.5 101126
31 июля, сб
сб3101:00+10юз34961 0.5 101283
04:00+9ю2294100 0.0 101217
07:00+10ю2798100 0.5 1013237
10:00+12юв31196100 0.9 1012422
13:00+16ююз41184100 1.8 1011845
16:00+15ю41085100 0.9 1011751
19:00+14ю51586100 1.8 1010628
22:00+13ю3995100 2.0 1010397
1 августа, вс
вс101:00+13ю3898100 5.3 1010333
04:00+13зюз259995 0.8 1010194
07:00+13зсз359848 0.8 1011289
10:00+15сз348568 0.1 1011615
13:00+15сз3477100 0.1 1011674
16:00+16сз3371100 0.0 1011805
19:00+17сз247069 0.0 1011577
22:00+14сз228258 0.0 101122
2 августа, пн
пн201:00+12зсз118876 0.0 101015
04:00+11зсз22938 0.0 100924
07:00+11сз11921 0.0 100944
10:00+17ююв11692 0.0 1008592
13:00+21ю125416 0.0 10061354
16:00+23ю124722 0.0 10051669
19:00+22вюв015698 0.0 1004845
22:00+15св128098 0.0 100411